AEHF-3 (USA 246)

Last updated on Sun Oct 06 2024 00:02:40 GMT+0000 (Coordinated Universal Time)

1 39256U 13050A 24279.21661398 .00000031 00000+0 00000+0 0 9996 2 39256 3.7493 72.1619 0086920 172.3072 83.8141 1.00348504 39457
UTC large
Height (km)
Speed (km/s)
/
Latitude / Longitude
Inclination (degrees)
Orbital Period (minutes)
Azimuth
Elevation
Range (km)
Doppler Factor

Next 0 passes for location: London (51.5072 / 0.1276)

Sorry there are no passes over London.